Location: Paderno d�Adda
(45.6667°N, 9.4333°E)
Time: 01:01:03
(UTC+00:00)

Cosmos 1603 - Visible Passes

Search period start: 24 January 2021 00:00
Search period end: 03 February 2021 00:00
Orbit: 831 x 859 km, 71.0° (Epoch: 23 January)

Date Brightness Start Highest point End Pass type
(mag) Time Alt. Az. Time Alt. Az. Time Alt. Az.
24 Jan 6.6 05:15:49 10° SE 05:19:38 19° E 05:23:30 10° NE visible
24 Jan 6.9 17:35:30 10° WNW 17:38:31 15° W 17:41:33 10° SW visible
25 Jan 6.6 05:01:57 10° SE 05:05:41 18° E 05:09:27 10° ENE visible
25 Jan 6.9 17:21:25 10° WNW 17:24:35 15° W 17:27:45 10° SW visible
26 Jan 6.6 04:48:06 10° SE 04:51:44 18° E 04:55:24 10° ENE visible
26 Jan 6.8 17:07:20 10° WNW 17:10:38 16° W 17:13:56 10° SW visible
27 Jan 6.6 04:34:15 10° SE 04:37:47 17° E 04:41:21 10° ENE visible
27 Jan 3.7 06:15:37 10° SSW 06:21:13 75° WNW 06:26:54 10° NNE visible
27 Jan 6.8 16:53:16 10° WNW 16:56:41 16° W 17:00:06 10° SW visible
28 Jan 6.5 04:20:24 10° SE 04:23:50 17° E 04:27:17 10° ENE visible
28 Jan 3.7 06:01:38 10° SSW 06:07:14 77° WNW 06:12:56 10° NNE visible
29 Jan 6.5 04:06:34 10° SE 04:09:53 16° E 04:13:13 10° ENE visible
29 Jan 3.6 05:47:39 10° SSW 05:53:15 79° WNW 05:58:57 10° NNE visible
30 Jan 6.5 03:52:44 10° SE 03:55:56 16° E 03:59:09 10° ENE visible
30 Jan 3.6 05:33:40 10° SSW 05:39:17 81° WNW 05:44:59 10° NNE visible
31 Jan 6.5 03:38:55 10° SE 03:41:59 15° E 03:45:05 10° ENE visible
31 Jan 3.6 05:19:41 10° SSW 05:25:18 84° WNW 05:31:00 10° NNE visible
01 Feb 6.5 03:25:06 10° SE 03:28:02 15° E 03:30:59 10° ENE visible
01 Feb 3.6 05:05:42 10° SSW 05:11:19 86° WNW 05:17:02 10° NNE visible
02 Feb 6.4 03:11:17 10° SE 03:14:05 14° E 03:16:53 10° ENE visible
02 Feb 3.6 04:51:43 10° SSW 04:57:21 88° WNW 05:03:03 10° NNE visible
